#timestamp,LO_Frequency,Hit,StdDev 
1691233215.7,286047000.4,N
1691233235.6,286046999.8,N
1691233255.4,286046999.7,N
1691233275.2,286046999.8,N
1691233295.1,286047002.3,N
1691233296.0,286047002.3,N
1691233315.8,286047001.6,N
1691233335.7,286047050.2,Y
1691233355.5,286047018.3,P
1691233375.3,286047006.0,N
1691233395.2,286046995.4,N
1691233415.9,286046993.1,N
1691233435.7,286046989.1,N
1691233455.6,286046987.6,N
1691233475.4,286046987.9,N
1691233495.2,286046985.4,N
1691233515.1,286046985.5,N
1691233516.0,286046985.5,N
1691233535.8,286046986.8,N
1691233555.6,286046984.7,N
1691233575.5,286046981.1,N
1691233595.3,286046981.0,N
1691233615.1,286046981.6,N
1691233635.9,286046981.4,N
1691233655.7,286046983.4,N
1691233675.5,286046983.3,N
1691233695.4,286046983.4,N
1691233715.2,286046984.9,N
1691233735.0,286046985.0,N
1691233735.9,286046985.0,N
1691233755.8,286046982.5,N
1691233775.6,286046983.3,N
1691233795.4,286046982.6,N
1691233815.3,286046982.7,N
1691233835.1,286046984.7,N
1691233836.0,286046984.7,N
1691233855.8,286046984.5,N
1691233875.7,286046982.5,N
1691233895.5,286046984.7,N
1691233915.3,286046984.5,Y
1691233935.2,286047001.1,P
1691233955.9,286046998.4,N
1691233975.7,286046998.2,N
1691233995.6,286046998.5,N
1691234015.4,286047001.0,N
1691234035.2,286046998.7,N
1691234055.1,286047000.7,N
1691234056.0,286047000.7,N
1691234075.8,286047000.5,N
1691234095.6,286047001.0,N
1691234115.5,286046999.8,N
1691234135.3,286047002.8,N
1691234155.1,286047002.4,N
1691234175.9,286046999.7,N
1691234195.7,286047001.8,N
1691234215.5,286046999.7,N
1691234235.4,286047002.7,N
1691234255.2,286047002.2,N
1691234275.0,286047000.0,N
1691234275.9,286047000.0,N
1691234295.8,286047002.3,N
1691234315.6,286047001.9,N
1691234335.4,286047001.7,N
1691234355.3,286047006.3,N
1691234375.1,286047005.8,N
1691234395.8,286047002.0,N
1691234415.7,286047002.8,N
1691234435.5,286047000.0,N
1691234455.3,286047000.7,N
1691234475.2,286047000.5,N
1691234495.9,286046998.2,N
1691234515.7,286046998.5,N
1691234535.6,286047000.0,N
1691234555.4,286046999.9,N
1691234575.2,286046998.5,N
1691234595.1,286046998.9,N
1691234596.0,286046998.9,N
1691234615.8,286047001.1,N
1691234635.6,286047001.1,N
1691234655.5,286047000.0,N
1691234675.3,286046999.7,N
1691234695.1,286047002.3,N
1691234715.9,286047002.8,N
1691234735.7,286046999.7,N
1691234755.5,286046999.9,N
1691234775.4,286047000.4,N
1691234795.2,286047000.0,N
1691234815.0,286047000.3,N
1691234815.9,286047000.3,N
1691234835.8,286047001.0,N
1691234855.6,286047002.1,N
1691234875.4,286047002.6,N
1691234895.3,286047001.3,N
1691234915.1,286047002.2,N
1691234935.8,286047000.2,N
1691234955.7,286047002.0,N
1691234975.5,286047002.8,N
1691234995.3,286047004.4,Y
1691235015.2,286047002.3,P
1691235035.9,286046999.7,N
1691235055.7,286047001.3,N
1691235075.6,286047001.4,N
1691235095.4,286047001.7,N
1691235115.2,286047002.6,Y
1691235135.1,286046999.8,P
1691235136.0,286046999.8,N
1691235155.8,286046999.9,N
1691235175.6,286047000.3,N
1691235195.5,286047000.0,N
1691235215.3,286047002.3,Y
1691235235.1,286047002.5,P
1691235255.9,286047002.1,N
1691235275.7,286047001.8,N
1691235295.5,286047001.8,N
1691235315.4,286047005.7,Y
1691235335.2,286047000.2,P
1691235355.0,286047001.2,N
1691235355.9,286047001.2,N
1691235375.8,286047000.4,N
1691235395.6,286047001.0,N
1691235415.4,286046998.1,Y
1691235435.3,286046997.1,P
1691235455.1,286046999.6,N
1691235475.8,286046996.6,N
1691235495.7,286046997.1,N
1691235515.5,286046998.5,N
1691235535.3,286046999.0,N
1691235555.2,286047000.5,N
1691235575.0,286047001.1,N
1691235575.9,286047001.1,N
1691235595.7,286046998.8,N
1691235615.6,286047000.2,N
1691235635.4,286047001.1,N
1691235655.2,286047000.5,N
1691235675.1,286047000.5,N
1691235676.0,286047000.5,N
1691235695.8,286047001.0,N
1691235715.6,286047001.0,N
1691235735.5,286046998.2,N
1691235755.3,286046998.9,N
1691235775.1,286046998.4,N
1691235795.9,286047000.9,N
1691235815.7,286047000.7,N
1691235835.5,286047000.3,N
1691235855.4,286047000.1,N
1691235875.2,286047002.4,N
1691235895.0,286047002.3,N
1691235895.9,286047002.3,N
1691235915.8,286047000.1,N
1691235935.6,286047000.8,N
1691235955.4,286047000.0,N
1691235975.3,286047000.5,N
1691235995.1,286047000.0,N
1691236015.8,286046999.7,N
1691236035.7,286047001.0,N
1691236055.5,286047002.3,N
1691236075.3,286046999.8,N
1691236095.2,286047000.9,N
1691236115.0,286047002.5,N
1691236115.9,286047002.5,N
1691236135.7,286047000.7,N
1691236155.6,286047000.6,N
1691236175.4,286047004.3,Y
1691236195.3,286047000.8,P
1691236215.1,286046999.0,P
1691236216.0,286046999.0,N
1691236235.8,286046999.6,N
1691236255.7,286046999.4,N
1691236275.5,286046996.5,Y
1691236295.3,286046998.1,P
1691236315.2,286046999.0,N
1691236335.9,286047001.1,N
1691236355.7,286047000.7,N
1691236375.6,286046998.4,N
1691236395.4,286046998.8,N
1691236415.2,286046999.5,N
1691236435.1,286046998.7,N
1691236436.0,286046998.7,N
1691236455.8,286046999.3,N
1691236475.6,286046999.5,N
1691236495.5,286046996.9,Y
1691236515.3,286046997.3,P
1691236535.1,286046997.7,N
1691236555.9,286046997.0,P
1691236575.7,286046998.5,N
1691236595.5,286047000.7,N
1691236615.4,286046999.3,N
1691236635.2,286046998.4,N
1691236655.0,286046998.3,N
1691236655.9,286046998.3,N
1691236675.8,286046998.5,N
1691236695.6,286046996.7,Y
1691236715.4,286046998.5,P
1691236735.3,286047000.3,P
1691236755.1,286047000.7,N
1691236756.0,286047000.7,N
1691236775.8,286047000.8,N
1691236795.7,286046998.4,N
